Weather History for Oakland, MD

Change the Weather History Date:

Monday, March 4, 2013

  Actual Average (KMGW) Record (KMGW)
Temperature  
Mean Temperature 16 °F 38 °F  
Max Temperature 19 °F 48 °F 79 °F (1976)
Min Temperature 14 °F 29 °F 1 °F (2014)
Degree Days  
Heating Degree Days 50 27  
Month to date heating degree days 109  
Since 1 July heating degree days 3998  
Cooling Degree Days 0 0  
Month to date cooling degree days 0  
Year to date cooling degree days 0  
Moisture  
Dew Point 15 °F    
Average Humidity 98    
Maximum Humidity 100    
Minimum Humidity 80    
Precipitation  
Precipitation 0.00 in 0.11 in 1.75 in (1963)
Month to date precipitation 0.43  
Year to date precipitation 5.84  
Sea Level Pressure  
Sea Level Pressure 29.88 in    
Wind  
Wind Speed 11 mph (WNW)    
Max Wind Speed 15 mph    
Max Gust Speed 21 mph    
Visibility 3 miles    
Events      
T = Trace of Precipitation, MM = Missing Value Source: NWS Daily Summary

Daily Weather History Graph

Daily Weather History Graph

Search for Another Location

Airport:

Trip Planner

Search our weather history database for the weather conditions in past years. The results will help you decide how hot, cold, wet, or windy it might be!

Date:

Astronomy

Mar. 04, 2013 Rise Set
Actual Time 6:45 AM EST 6:13 PM EST
Civil Twilight 6:18 AM EST 6:40 PM EST
Nautical Twilight 5:47 AM EST 7:11 PM EST
Astronomical Twilight 5:16 AM EST 7:42 PM EST
Moon 12:52 AM EST (3/4) 10:54 AM EST (3/4)
Length of Visible Light 12h 21m
Length of Day
11h 27m
Waning Gibbous, 52% of the Moon is Illuminated
Mar 4
Waning Gibbous
Mar 4
Last Quarter
Mar 11
New
Mar 19
First Quarter
Mar 27
Full

Hourly Weather History & Observations

Time (EST) Temp. Windchill Dew Point Humidity Pressure Visibility Wind Dir Wind Speed Gust Speed Precip Events Conditions
12:15 AM 15.8 °F 2.7 °F 15.8 °F 100% 29.83 in 4.0 mi West 11.5 mph 17.3 mph N/A   Overcast
12:35 AM 15.8 °F 4.2 °F 15.8 °F 100% 29.83 in 2.5 mi West 9.2 mph 17.3 mph N/A   Overcast
12:55 AM 15.8 °F 4.2 °F 15.8 °F 100% 29.83 in 1.5 mi West 9.2 mph - N/A   Overcast
1:15 AM 15.8 °F 5.1 °F 15.8 °F 100% 29.83 in 1.8 mi WNW 8.1 mph - N/A   Overcast
1:35 AM 15.8 °F 4.2 °F 15.8 °F 100% 29.84 in 2.0 mi WNW 9.2 mph 17.3 mph N/A   Overcast
1:55 AM 15.8 °F 2.7 °F 15.8 °F 100% 29.84 in 2.0 mi West 11.5 mph 16.1 mph N/A   Overcast
2:15 AM 15.8 °F 4.2 °F 15.8 °F 100% 29.84 in 1.8 mi West 9.2 mph 17.3 mph N/A   Overcast
2:35 AM 15.8 °F 4.2 °F 15.8 °F 100% 29.84 in 1.8 mi WNW 9.2 mph 16.1 mph N/A   Overcast
2:55 AM 14.0 °F 1.2 °F 14.0 °F 100% 29.84 in 2.5 mi West 10.4 mph 18.4 mph N/A   Overcast
3:15 AM 14.0 °F 0.5 °F 14.0 °F 100% 29.84 in 1.5 mi West 11.5 mph 16.1 mph N/A   Overcast
3:35 AM 14.0 °F 2.0 °F 14.0 °F 100% 29.85 in 2.0 mi WNW 9.2 mph 18.4 mph N/A   Overcast
3:55 AM 14.0 °F -0.8 °F 14.0 °F 100% 29.85 in 2.0 mi WNW 13.8 mph 20.7 mph N/A   Overcast
4:15 AM 14.0 °F 1.2 °F 14.0 °F 100% 29.85 in 10.0 mi WNW 10.4 mph 18.4 mph N/A   Overcast
4:35 AM 14.0 °F -0.2 °F 14.0 °F 100% 29.86 in 7.0 mi WNW 12.7 mph 18.4 mph N/A   Overcast
4:55 AM 14.0 °F -0.2 °F 14.0 °F 100% 29.87 in 5.0 mi West 12.7 mph 20.7 mph N/A   Overcast
5:15 AM 14.0 °F 2.0 °F 14.0 °F 100% 29.88 in 4.0 mi West 9.2 mph 17.3 mph N/A   Overcast
5:55 AM 14.0 °F 0.5 °F 14.0 °F 100% 29.88 in 4.0 mi West 11.5 mph 20.7 mph N/A   Overcast
6:15 AM 14.0 °F 1.2 °F 14.0 °F 100% 29.88 in 4.0 mi West 10.4 mph 18.4 mph N/A   Overcast
6:35 AM 14.0 °F 1.2 °F 14.0 °F 100% 29.89 in 2.5 mi WNW 10.4 mph 19.6 mph N/A   Overcast
6:55 AM 14.0 °F 1.2 °F 14.0 °F 100% 29.90 in 1.5 mi West 10.4 mph 17.3 mph N/A   Overcast
7:15 AM 14.0 °F -0.8 °F 14.0 °F 100% 29.91 in 1.8 mi WNW 13.8 mph 20.7 mph N/A   Overcast
7:35 AM 14.0 °F 1.2 °F 14.0 °F 100% 29.92 in 1.5 mi West 10.4 mph 17.3 mph N/A   Overcast
7:55 AM 14.0 °F 2.0 °F 14.0 °F 100% 29.92 in 1.0 mi WNW 9.2 mph 19.6 mph N/A   Overcast
8:20 AM 15.8 °F 3.4 °F 15.8 °F 100% 29.93 in 1.0 mi WNW 10.4 mph 17.3 mph N/A   Overcast
8:40 AM 15.8 °F 4.2 °F 15.8 °F 100% 29.93 in 0.8 mi West 9.2 mph - N/A   Overcast
9:00 AM 15.8 °F 4.2 °F 15.8 °F 100% 29.94 in 1.0 mi WNW 9.2 mph 19.6 mph N/A   Overcast
9:20 AM 15.8 °F 5.1 °F 15.8 °F 100% 29.94 in 2.0 mi WNW 8.1 mph - N/A   Overcast
9:40 AM 17.6 °F 4.3 °F 15.8 °F 93% 29.94 in 1.8 mi West 12.7 mph 18.4 mph N/A   Overcast
10:00 AM 17.6 °F 5.0 °F 15.8 °F 93% 29.94 in 2.0 mi West 11.5 mph 18.4 mph N/A   Overcast
10:20 AM 17.6 °F 3.2 °F 14.0 °F 86% 29.95 in 1.0 mi West 15.0 mph 20.7 mph N/A   Overcast
11:00 AM 19.4 °F 6.0 °F 14.0 °F 80% 29.95 in 4.0 mi West 13.8 mph 19.6 mph N/A   Haze